DAL2496 KMCO-KMIA

Flight info

Callsign DAL2496
Flight time 0h 41m
Altitude 19000
Route DDANY3 DDANY CSTAL3
Aircraft A319/M-SDE3FGHIRWY/LB1

Departure

Time 2026-04-24 00:14
Airport Orlando International Airport (KMCO)

Arrival

Time 2026-04-24 00:55
Airport Miami International Airport (KMIA)
Time Latitude Longitude Altitude Speed Heading
2026-04-23 23:35 28.42876 -81.30082 102 ft 0 kts 146°
2026-04-24 00:06 28.42888 -81.30092 94 ft 4 kts 146°
2026-04-24 00:06 28.42906 -81.30106 103 ft 3 kts 146°
2026-04-24 00:06 28.42928 -81.30122 102 ft 4 kts 129°
2026-04-24 00:06 28.42936 -81.30144 102 ft 4 kts 101°
2026-04-24 00:07 28.42938 -81.30155 103 ft 0 kts 101°
2026-04-24 00:10 28.42937 -81.30138 103 ft 5 kts 84°
2026-04-24 00:10 28.42948 -81.30088 102 ft 7 kts 76°
2026-04-24 00:11 28.42958 -81.30021 103 ft 12 kts 86°
2026-04-24 00:11 28.42939 -81.29916 102 ft 15 kts 123°
2026-04-24 00:11 28.42923 -81.29809 102 ft 15 kts 50°
2026-04-24 00:11 28.43022 -81.29800 103 ft 15 kts
2026-04-24 00:12 28.43126 -81.29801 104 ft 16 kts 358°
2026-04-24 00:12 28.43237 -81.29801 103 ft 16 kts
2026-04-24 00:12 28.43354 -81.29802 103 ft 17 kts 359°
2026-04-24 00:12 28.43474 -81.29804 104 ft 16 kts 359°
2026-04-24 00:13 28.43553 -81.29763 104 ft 14 kts 71°
2026-04-24 00:13 28.43551 -81.29652 104 ft 15 kts 94°
2026-04-24 00:13 28.43494 -81.29587 104 ft 13 kts 179°
2026-04-24 00:13 28.43330 -81.29586 108 ft 53 kts 180°
2026-04-24 00:14 28.42713 -81.29578 101 ft 123 kts 180°
2026-04-24 00:14 28.41683 -81.29553 315 ft 158 kts 175°
2026-04-24 00:14 28.40587 -81.29543 1028 ft 157 kts 174°
2026-04-24 00:14 28.39495 -81.29535 1775 ft 157 kts 175°
2026-04-24 00:15 28.38337 -81.29405 2134 ft 179 kts 158°
2026-04-24 00:15 28.37211 -81.28629 2495 ft 203 kts 142°
2026-04-24 00:15 28.35981 -81.27660 3008 ft 227 kts 144°
2026-04-24 00:15 28.34607 -81.26601 3645 ft 247 kts 143°
2026-04-24 00:16 28.33523 -81.25064 4523 ft 257 kts 113°
2026-04-24 00:16 28.33066 -81.23108 5444 ft 265 kts 99°
2026-04-24 00:16 28.32846 -81.20994 6327 ft 274 kts 95°
2026-04-24 00:16 28.32679 -81.18810 7176 ft 283 kts 95°
2026-04-24 00:17 28.32482 -81.16568 8049 ft 289 kts 96°
2026-04-24 00:17 28.32231 -81.14272 8941 ft 295 kts 97°
2026-04-24 00:17 28.31931 -81.11947 9879 ft 300 kts 98°
2026-04-24 00:17 28.31595 -81.09595 10726 ft 305 kts 99°
2026-04-24 00:18 28.31225 -81.07139 11123 ft 328 kts 99°
2026-04-24 00:18 28.30820 -81.04519 11683 ft 342 kts 99°
2026-04-24 00:18 28.30406 -81.01882 12463 ft 347 kts 99°
2026-04-24 00:18 28.29980 -80.99167 13287 ft 352 kts 99°
2026-04-24 00:19 28.29547 -80.96413 14066 ft 357 kts 99°
2026-04-24 00:19 28.29110 -80.93619 14764 ft 362 kts 99°
2026-04-24 00:19 28.28668 -80.90790 15460 ft 366 kts 100°
2026-04-24 00:19 28.28224 -80.87935 16194 ft 369 kts 100°
2026-04-24 00:20 28.27571 -80.85106 16876 ft 373 kts 111°
2026-04-24 00:20 28.26591 -80.82362 17563 ft 377 kts 113°
2026-04-24 00:20 28.25588 -80.79591 18241 ft 382 kts 113°
2026-04-24 00:20 28.24576 -80.76792 18805 ft 387 kts 113°
2026-04-24 00:21 28.23566 -80.73990 19017 ft 390 kts 113°
2026-04-24 00:21 28.22484 -80.71187 19078 ft 382 kts 121°
2026-04-24 00:21 28.20833 -80.68811 19094 ft 394 kts 139°
2026-04-24 00:21 28.18575 -80.66972 19086 ft 405 kts 154°
2026-04-24 00:22 28.15972 -80.65760 19083 ft 405 kts 166°
2026-04-24 00:22 28.13249 -80.64943 19084 ft 405 kts 168°
2026-04-24 00:22 28.10523 -80.64117 19091 ft 406 kts 167°
2026-04-24 00:22 28.07799 -80.63283 19091 ft 406 kts 167°
2026-04-24 00:23 28.05110 -80.62461 19091 ft 406 kts 167°
2026-04-24 00:23 28.02347 -80.61622 19078 ft 406 kts 167°
2026-04-24 00:23 27.99654 -80.60810 19086 ft 406 kts 167°
2026-04-24 00:23 27.96930 -80.59993 19090 ft 406 kts 167°
2026-04-24 00:24 27.94200 -80.59178 19092 ft 406 kts 167°
2026-04-24 00:24 27.91468 -80.58364 19094 ft 406 kts 167°
2026-04-24 00:24 27.88737 -80.57547 19096 ft 406 kts 167°
2026-04-24 00:24 27.86004 -80.56730 19099 ft 406 kts 167°
2026-04-24 00:25 27.83271 -80.55915 19100 ft 406 kts 167°
2026-04-24 00:25 27.80538 -80.55099 19100 ft 406 kts 167°
2026-04-24 00:25 27.77841 -80.54296 19103 ft 406 kts 167°
2026-04-24 00:25 27.75108 -80.53480 19101 ft 406 kts 167°
2026-04-24 00:26 27.72374 -80.52663 19099 ft 406 kts 167°
2026-04-24 00:26 27.69648 -80.51850 19100 ft 406 kts 167°
2026-04-24 00:26 27.66909 -80.51035 19103 ft 406 kts 167°
2026-04-24 00:26 27.64193 -80.50171 19103 ft 407 kts 165°
2026-04-24 00:27 27.61501 -80.49175 19107 ft 407 kts 163°
2026-04-24 00:27 27.58832 -80.48097 19103 ft 408 kts 162°
2026-04-24 00:27 27.56172 -80.46985 19105 ft 408 kts 162°
2026-04-24 00:27 27.53513 -80.45874 19102 ft 408 kts 162°
2026-04-24 00:28 27.50886 -80.44789 19103 ft 407 kts 162°
2026-04-24 00:28 27.48217 -80.43710 19099 ft 407 kts 162°
2026-04-24 00:28 27.45544 -80.42650 19099 ft 407 kts 163°
2026-04-24 00:28 27.42869 -80.41597 19105 ft 407 kts 163°
2026-04-24 00:29 27.40192 -80.40548 19100 ft 407 kts 163°
2026-04-24 00:29 27.37521 -80.39499 19095 ft 407 kts 163°
2026-04-24 00:29 27.34844 -80.38447 19092 ft 407 kts 163°
2026-04-24 00:29 27.32168 -80.37395 19092 ft 407 kts 163°
2026-04-24 00:30 27.29493 -80.36342 19098 ft 407 kts 163°
2026-04-24 00:30 27.26854 -80.35301 19097 ft 407 kts 163°
2026-04-24 00:30 27.24179 -80.34247 19095 ft 407 kts 163°
2026-04-24 00:30 27.21506 -80.33194 19090 ft 407 kts 163°
2026-04-24 00:31 27.18833 -80.32143 19092 ft 407 kts 163°
2026-04-24 00:31 27.16156 -80.31099 19097 ft 407 kts 163°
2026-04-24 00:31 27.13478 -80.30057 19082 ft 407 kts 163°
2026-04-24 00:31 27.10800 -80.29018 19092 ft 407 kts 163°
2026-04-24 00:32 27.08123 -80.27979 19097 ft 407 kts 163°
2026-04-24 00:32 27.05453 -80.26945 18762 ft 405 kts 163°
2026-04-24 00:32 27.02837 -80.25931 18645 ft 391 kts 163°
2026-04-24 00:32 27.00346 -80.24965 18478 ft 378 kts 163°
2026-04-24 00:33 26.97891 -80.24015 18241 ft 368 kts 163°
2026-04-24 00:33 26.95500 -80.23089 17969 ft 359 kts 163°
2026-04-24 00:33 26.93166 -80.22185 17708 ft 351 kts 163°
2026-04-24 00:33 26.90874 -80.21300 17455 ft 347 kts 163°
2026-04-24 00:34 26.88596 -80.20421 17196 ft 345 kts 163°
2026-04-24 00:34 26.86326 -80.19545 16943 ft 344 kts 163°
2026-04-24 00:34 26.84061 -80.18684 16683 ft 343 kts 164°
2026-04-24 00:34 26.81797 -80.17844 16443 ft 343 kts 164°
2026-04-24 00:35 26.79566 -80.17024 16194 ft 341 kts 164°
2026-04-24 00:35 26.77309 -80.16194 15951 ft 341 kts 164°
2026-04-24 00:35 26.75058 -80.15365 15706 ft 340 kts 164°
2026-04-24 00:35 26.72816 -80.14541 15462 ft 339 kts 164°
2026-04-24 00:36 26.70570 -80.13730 15215 ft 338 kts 166°
2026-04-24 00:36 26.68307 -80.13032 14977 ft 337 kts 168°
2026-04-24 00:36 26.66036 -80.12416 14741 ft 335 kts 169°
2026-04-24 00:36 26.63763 -80.11838 14506 ft 334 kts 169°
2026-04-24 00:37 26.61500 -80.11265 14294 ft 334 kts 169°
2026-04-24 00:37 26.59270 -80.10691 14067 ft 333 kts 169°
2026-04-24 00:37 26.57015 -80.10121 13829 ft 332 kts 169°
2026-04-24 00:37 26.54764 -80.09564 13569 ft 331 kts 169°
2026-04-24 00:38 26.52521 -80.09012 13308 ft 329 kts 169°
2026-04-24 00:38 26.50292 -80.08463 13049 ft 326 kts 169°
2026-04-24 00:38 26.48086 -80.07918 12783 ft 325 kts 169°
2026-04-24 00:38 26.45883 -80.07372 12531 ft 324 kts 169°
2026-04-24 00:39 26.43683 -80.06864 12284 ft 322 kts 171°
2026-04-24 00:39 26.41488 -80.06396 12034 ft 321 kts 171°
2026-04-24 00:39 26.39329 -80.05949 11789 ft 320 kts 171°
2026-04-24 00:39 26.37162 -80.05437 11540 ft 317 kts 169°
2026-04-24 00:40 26.35036 -80.04871 11309 ft 310 kts 167°
2026-04-24 00:40 26.32970 -80.04292 11062 ft 304 kts 167°
2026-04-24 00:40 26.30938 -80.03746 10818 ft 297 kts 173°
2026-04-24 00:40 26.28919 -80.03790 10583 ft 287 kts 195°
2026-04-24 00:41 26.27108 -80.04613 10349 ft 279 kts 216°
2026-04-24 00:41 26.25707 -80.06068 10110 ft 275 kts 233°
2026-04-24 00:41 26.24560 -80.07731 9734 ft 274 kts 235°
2026-04-24 00:41 26.23409 -80.09413 9363 ft 272 kts 235°
2026-04-24 00:42 26.22267 -80.11084 8975 ft 271 kts 234°
2026-04-24 00:42 26.21125 -80.12754 8574 ft 271 kts 234°
2026-04-24 00:42 26.19986 -80.14422 8173 ft 270 kts 234°
2026-04-24 00:42 26.18854 -80.16081 7787 ft 269 kts 234°
2026-04-24 00:43 26.17723 -80.17734 7435 ft 267 kts 233°
2026-04-24 00:43 26.16602 -80.19368 7082 ft 264 kts 233°
2026-04-24 00:43 26.15496 -80.20976 6849 ft 257 kts 234°
2026-04-24 00:43 26.14420 -80.22537 6633 ft 251 kts 234°
2026-04-24 00:44 26.13355 -80.24083 6517 ft 252 kts 233°
2026-04-24 00:44 26.12301 -80.25613 6388 ft 252 kts 233°
2026-04-24 00:44 26.11220 -80.27185 6269 ft 253 kts 233°
2026-04-24 00:44 26.10166 -80.28719 6138 ft 253 kts 233°
2026-04-24 00:45 26.09097 -80.30272 6013 ft 253 kts 233°
2026-04-24 00:45 26.08041 -80.31807 5882 ft 244 kts 233°
2026-04-24 00:45 26.07031 -80.33274 5745 ft 234 kts 232°
2026-04-24 00:45 26.06051 -80.34700 5466 ft 231 kts 232°
2026-04-24 00:46 26.05080 -80.36114 5140 ft 230 kts 231°
2026-04-24 00:46 26.04106 -80.37532 4797 ft 231 kts 231°
2026-04-24 00:46 26.03129 -80.38950 4460 ft 231 kts 231°
2026-04-24 00:46 26.02170 -80.40341 4314 ft 230 kts 231°
2026-04-24 00:47 26.01192 -80.41758 4201 ft 232 kts 231°
2026-04-24 00:47 26.00209 -80.43181 4088 ft 232 kts 230°
2026-04-24 00:47 25.99226 -80.44604 3946 ft 232 kts 230°
2026-04-24 00:47 25.98243 -80.46029 3829 ft 232 kts 231°
2026-04-24 00:48 25.97258 -80.47455 3704 ft 232 kts 230°
2026-04-24 00:48 25.96274 -80.48882 3581 ft 232 kts 231°
2026-04-24 00:48 25.95293 -80.50309 3463 ft 233 kts 231°
2026-04-24 00:48 25.94314 -80.51740 3333 ft 233 kts 231°
2026-04-24 00:49 25.93285 -80.53102 3202 ft 226 kts 216°
2026-04-24 00:49 25.91894 -80.53716 3080 ft 212 kts 175°
2026-04-24 00:49 25.90613 -80.53151 2959 ft 201 kts 131°
2026-04-24 00:49 25.90113 -80.51770 2836 ft 197 kts 89°
2026-04-24 00:50 25.90162 -80.50247 2699 ft 198 kts 96°
2026-04-24 00:50 25.89548 -80.48902 2588 ft 199 kts 125°
2026-04-24 00:50 25.88793 -80.47631 2461 ft 196 kts 117°
2026-04-24 00:50 25.88142 -80.46341 2329 ft 187 kts 116°
2026-04-24 00:51 25.87517 -80.45107 2196 ft 180 kts 117°
2026-04-24 00:51 25.86909 -80.43911 2102 ft 176 kts 117°
2026-04-24 00:51 25.86311 -80.42736 2052 ft 174 kts 117°
2026-04-24 00:51 25.85718 -80.41572 2002 ft 172 kts 117°
2026-04-24 00:52 25.85135 -80.40428 1958 ft 173 kts 117°
2026-04-24 00:52 25.84554 -80.39290 1803 ft 162 kts 117°
2026-04-24 00:52 25.84039 -80.38284 1625 ft 141 kts 117°
2026-04-24 00:52 25.83573 -80.37371 1451 ft 132 kts 116°
2026-04-24 00:53 25.83124 -80.36491 1286 ft 130 kts 116°
2026-04-24 00:53 25.82684 -80.35628 1123 ft 128 kts 115°
2026-04-24 00:53 25.82245 -80.34769 961 ft 128 kts 115°
2026-04-24 00:53 25.81804 -80.33905 794 ft 129 kts 117°
2026-04-24 00:54 25.81364 -80.33044 633 ft 133 kts 118°
2026-04-24 00:54 25.80915 -80.32160 453 ft 131 kts 118°
2026-04-24 00:54 25.80460 -80.31260 277 ft 135 kts 119°
2026-04-24 00:54 25.79998 -80.30374 103 ft 130 kts 117°
2026-04-24 00:55 25.79571 -80.29532 15 ft 114 kts 118°
2026-04-24 00:55 25.79266 -80.28932 13 ft 64 kts 119°
2026-04-24 00:55 25.79122 -80.28646 14 ft 30 kts 113°
2026-04-24 00:55 25.79112 -80.28466 15 ft 15 kts 82°
2026-04-24 00:56 25.79081 -80.28361 16 ft 14 kts 118°
2026-04-24 00:56 25.79032 -80.28262 16 ft 15 kts 120°
2026-04-24 00:56 25.78978 -80.28158 16 ft 16 kts 113°
2026-04-24 00:56 25.78988 -80.28037 16 ft 16 kts 93°
2026-04-24 00:57 25.78938 -80.27924 16 ft 17 kts 113°
2026-04-24 00:57 25.78990 -80.27827 15 ft 17 kts 19°
2026-04-24 00:57 25.79132 -80.27754 15 ft 5 kts 87°
2026-04-24 00:58 25.79133 -80.27719 15 ft 3 kts 85°
2026-04-24 00:58 25.79134 -80.27706 15 ft 0 kts 85°